Location: W�rzburg
(49.7529°N, 9.8822°E)
Time: 12:12:09
(UTC+02:00)

Tiangong 2 - Visible Passes

Search period start: 20 May 2018 00:00
Search period end: 30 May 2018 00:00
Orbit: 382 x 386 km, 42.8° (Epoch: 20 May)

Date Brightness Start Highest point End Pass type
(mag) Time Alt. Az. Time Alt. Az. Time Alt. Az.
22 May 3.2 21:59:49 10° S 22:00:52 11° SSE 22:01:47 10° SE visible
23 May 2.6 22:35:00 10° SW 22:37:18 19° SSE 22:37:44 18° SSE visible
24 May 2.5 23:11:16 10° SW 23:13:16 22° SSW 23:13:16 22° SSW visible
25 May 2.5 22:11:43 10° SW 22:14:13 22° S 22:16:21 12° SE visible
25 May 3.5 23:48:00 10° WSW 23:48:32 13° SW 23:48:32 13° SW visible
26 May 2.4 22:48:13 10° WSW 22:50:45 22° S 22:51:28 20° SSE visible
27 May 3.1 23:25:10 10° WSW 23:26:28 15° SW 23:26:28 15° SW visible
28 May 2.7 22:25:14 10° WSW 22:27:37 20° S 22:29:14 14° SSE visible
29 May 3.3 23:02:36 10° SW 23:04:02 12° SSW 23:04:09 12° SSW visible
